Weather History for KRAP - December, 2011

Change the Weather History Date:

Saturday, December 24, 2011

  Actual Average Record
Temperature  
Mean Temperature 34 °F 24 °F  
Max Temperature 47 °F 36 °F 62 °F (1955)
Min Temperature 21 °F 12 °F -26 °F (1983)
Degree Days  
Heating Degree Days 31 41  
Month to date heating degree days 934 957  
Since 1 July heating degree days 2476 2632  
Cooling Degree Days 0 0  
Month to date cooling degree days 0 0  
Year to date cooling degree days 699 636  
Moisture  
Dew Point 16 °F    
Average Humidity 53    
Maximum Humidity 69    
Minimum Humidity 36    
Precipitation  
Precipitation 0.00 in 0.02 in 0.30 in (1948)
Month to date precipitation 0.21 0.32  
Year to date precipitation 19.34 16.19  
Snow  
Snow 0.00 in 0.10 in 3.50 in (1948)
Month to date snowfall 2.8 4.2  
Since 1 July snowfall 17.4 12.0  
Snow Depth 0.00 in    
Sea Level Pressure  
Sea Level Pressure 30.37 in    
Wind  
Wind Speed 6 mph (WNW)    
Max Wind Speed 17 mph    
Max Gust Speed 22 mph    
Visibility 10 miles    
Events      
T = Trace of Precipitation, MM = Missing Value Source: NWS Daily Summary

Daily Weather History Graph

Daily Weather History Graph

Search for Another Location

Airport or City:

Trip Planner

Search our weather history database for the weather conditions in past years. The results will help you decide how hot, cold, wet, or windy it might be!

Date:

Astronomy

Dec. 24, 2011 Rise Set
Actual Time 7:25 AM MST 4:18 PM MST
Civil Twilight 6:52 AM MST 4:51 PM MST
Nautical Twilight 6:15 AM MST 5:28 PM MST
Astronomical Twilight 5:40 AM MST 6:03 PM MST
Moon 7:15 AM MST (12/24) 4:34 PM MST (12/24)
Length of Visible Light 9h 59m
Length of Day
8h 53m
New Moon, 0% of the Moon is Illuminated
Dec 24
New Moon
Dec 31
First Quarter
Jan 9
Full
Jan 16
Last Quarter
Jan 23
New

Hourly Weather History & Observations

Time (MST) Temp. Windchill Dew Point Humidity Pressure Visibility Wind Dir Wind Speed Gust Speed Precip Events Conditions
12:52 AM 26.1 °F 17.6 °F 12.9 °F 58% 30.33 in 10.0 mi WNW 8.1 mph - N/A   Clear
1:52 AM 27.0 °F 19.5 °F 10.9 °F 51% 30.34 in 10.0 mi WNW 6.9 mph - N/A   Clear
2:52 AM 21.9 °F 17.2 °F 10.9 °F 63% 30.35 in 10.0 mi SSE 3.5 mph - N/A   Clear
3:52 AM 24.1 °F 18.2 °F 12.0 °F 60% 30.35 in 10.0 mi West 4.6 mph - N/A   Clear
4:52 AM 23.0 °F 17.0 °F 12.0 °F 63% 30.36 in 10.0 mi West 4.6 mph - N/A   Clear
5:52 AM 24.1 °F 18.2 °F 12.0 °F 60% 30.38 in 10.0 mi WNW 4.6 mph - N/A   Clear
6:52 AM 21.0 °F 13.4 °F 10.9 °F 65% 30.40 in 10.0 mi WNW 5.8 mph - N/A   Clear
7:52 AM 24.1 °F 19.7 °F 12.0 °F 60% 30.38 in 10.0 mi West 3.5 mph - N/A   Clear
8:52 AM 34.0 °F 29.8 °F 18.0 °F 52% 30.37 in 10.0 mi WNW 4.6 mph - N/A   Clear
9:52 AM 39.0 °F 35.7 °F 19.9 °F 46% 30.35 in 10.0 mi WSW 4.6 mph - N/A   Clear
10:52 AM 43.0 °F 38.8 °F 19.9 °F 40% 30.32 in 10.0 mi WSW 6.9 mph - N/A   Clear
11:52 AM 43.0 °F 41.3 °F 19.9 °F 40% 30.30 in 10.0 mi South 3.5 mph - N/A   Clear
12:52 PM 43.0 °F 41.3 °F 21.9 °F 43% 30.30 in 10.0 mi East 3.5 mph - N/A   Clear
1:52 PM 46.0 °F 41.9 °F 21.0 °F 37% 30.30 in 10.0 mi North 8.1 mph - N/A   Clear
2:52 PM 43.0 °F 36.8 °F 18.0 °F 37% 30.35 in 10.0 mi NNW 11.5 mph - N/A   Clear
3:52 PM 39.9 °F 32.9 °F 17.1 °F 40% 30.36 in 10.0 mi NNW 11.5 mph - N/A   Clear
4:52 PM 35.1 °F 27.9 °F 17.1 °F 48% 30.39 in 10.0 mi NW 9.2 mph - N/A   Clear
5:52 PM 30.9 °F 24.3 °F 17.1 °F 57% 30.41 in 10.0 mi WNW 6.9 mph - N/A   Clear
6:52 PM 30.9 °F - 15.1 °F 52% 30.44 in 10.0 mi Calm Calm - N/A   Clear
7:52 PM 28.0 °F 24.2 °F 16.0 °F 61% 30.44 in 10.0 mi West 3.5 mph - N/A   Clear
8:52 PM 27.0 °F 23.0 °F 17.1 °F 66% 30.43 in 10.0 mi WNW 3.5 mph - N/A   Clear
9:52 PM 30.9 °F 27.5 °F 17.1 °F 57% 30.42 in 10.0 mi West 3.5 mph - N/A   Clear
10:52 PM 28.0 °F 21.7 °F 19.0 °F 69% 30.43 in 10.0 mi WNW 5.8 mph - N/A   Clear
11:52 PM 34.0 °F 25.0 °F 21.9 °F 61% 30.42 in 10.0 mi NNW 12.7 mph - N/A   Clear